Flag for Singapore Weather past 2 weeks in Singapore, Singapore

Now
81 °F

Passing clouds.


Feels Like: 86 °F
Forecast: 78 / 87 °F
Wind: 6 mph from West

Location: Singapore / Paya Lebar

Current Time: Sep 21, 2014 at 2:07:05 AM

Latest Report: Sep 20, 2014 at 9:00 PM


Visibility: N/A

Pressure: 29.86 "Hg

Humidity: 84%

Dew point: 75 °F

Location of SingaporeLocation

Historic Weather in Singapore — Graph

°F

Singapore temperature yesterday

Maximum temperature yesterday: 90 °F (at 12:00 PM)
Minimum temperature yesterday: 81 °F (at 7:00 AM)
Average temperature yesterday: 84 °F

Past Weeks' High & Low Weather Summary

 TemperatureHumidityPressure
High93 °F (Sep 19, 3:00 PM)94% (Sep 11, 10:00 PM)29.92 "Hg (Sep 11, 10:00 PM)
Low77 °F (Sep 6, 5:00 AM)46% (Sep 15, 3:00 PM)29.68 "Hg (Sep 16, 4:00 PM)
Average85 °F72%29.82 "Hg
* Reported Sep 5 9:00 PM — Sep 20 9:00 PM, Singapore, Weather by CustomWeather, © 2014

Note: Actual official high and low records may vary slightly from our data, if they occured in-between our weather recording intervals... More about our weather records

Advertising

Singapore weather history for previous 24 hours

 ConditionsComfort  
Time TempWeatherWind HumidityBarometerVisibility
9:00 PM
Sep 20
81 °FPassing clouds.6 mph84%29.86 "HgN/A
8:00 PM81 °FLight rain. Passing clouds.7 mph84%29.86 "HgN/A
7:00 PM82 °FScattered clouds.6 mph79%29.83 "HgN/A
6:00 PM84 °FScattered clouds.9 mph70%29.80 "HgN/A
5:00 PM86 °FBroken clouds.5 mph66%29.80 "HgN/A
4:00 PM86 °FScattered clouds.6 mph62%29.77 "HgN/A
3:00 PM84 °FScattered showers. Partly sunny.3 mph70%29.80 "HgN/A
2:00 PM82 °FThunderstorms. Broken clouds.10 mph74%29.80 "Hg5 mi
1:00 PM90 °FBroken clouds.8 mph59%29.80 "HgN/A
12:00 PM90 °FBroken clouds.7 mph63%29.83 "HgN/A
11:00 AM88 °FPartly sunny.8 mph66%29.86 "HgN/A
10:00 AM86 °FPartly sunny.6 mph75%29.86 "HgN/A
9:00 AM84 °FPartly sunny.5 mph79%29.86 "HgN/A
8:00 AM82 °FPartly sunny.1 mph79%29.83 "HgN/A
7:00 AM81 °FScattered showers. Partly sunny.3 mph84%29.80 "Hg6 mi
6:00 AM82 °FPassing clouds.2 mph89%29.80 "Hg6 mi
5:00 AM82 °FPassing clouds.3 mph84%29.80 "Hg6 mi
Weather by CustomWeather, © 2014

See weather overviewHow to use our weather pages